Weather History for Fort Payne, AL

Change the Weather History Date:

Monday, January 21, 2013

  Actual Average (KRMG) Record (KRMG)
Temperature  
Mean Temperature 38 °F 41 °F  
Max Temperature 48 °F 52 °F 73 °F (1999)
Min Temperature 28 °F 30 °F 14 °F (2008)
Degree Days  
Heating Degree Days 27 24  
Month to date heating degree days 504  
Since 1 July heating degree days 1804  
Moisture  
Dew Point 22 °F    
Average Humidity 62    
Maximum Humidity 100    
Minimum Humidity 27    
Precipitation  
Precipitation 0.00 in 0.17 in 0.94 in (2007)
Month to date precipitation 2.95  
Year to date precipitation 2.95  
Snow  
Snow 0.00 in - - ()
Month to date snowfall  
Since 1 July snowfall  
Snow Depth -    
Sea Level Pressure  
Sea Level Pressure 30.17 in    
Wind  
Wind Speed 3 mph (NNW)    
Max Wind Speed 12 mph    
Max Gust Speed 18 mph    
Visibility 10 miles    
Events      
T = Trace of Precipitation, MM = Missing Value Source: NWS Daily Summary

Daily Weather History Graph

Daily Weather History Graph

Search for Another Location

Airport:

Trip Planner

Search our weather history database for the weather conditions in past years. The results will help you decide how hot, cold, wet, or windy it might be!

Date:

Astronomy

Jan. 21, 2013 Rise Set
Actual Time 6:47 AM CST 5:01 PM CST
Civil Twilight 6:20 AM CST 5:28 PM CST
Nautical Twilight 5:49 AM CST 5:59 PM CST
Astronomical Twilight 5:19 AM CST 6:29 PM CST
Moon 12:42 PM CST (1/21) 2:14 AM CST (1/21)
Length of Visible Light 11h 08m
Length of Day
10h 14m
Waxing Gibbous, 75% of the Moon is Illuminated
Jan 21
Waxing Gibbous
Jan 26
Full
Feb 3
Last Quarter
Feb 10
New
Feb 17
First Quarter

Hourly Weather History & Observations

Time (CST) Temp. Windchill Dew Point Humidity Pressure Visibility Wind Dir Wind Speed Gust Speed Precip Events Conditions
12:15 AM 32.0 °F - 30.2 °F 93% 30.13 in 10.0 mi Calm Calm - N/A   Clear
12:35 AM 30.2 °F 26.7 °F 28.4 °F 93% 30.13 in 10.0 mi NNE 3.5 mph - N/A   Clear
12:55 AM 32.0 °F - 30.2 °F 93% 30.13 in 10.0 mi Calm Calm - N/A   Clear
1:15 AM 30.2 °F - 28.4 °F 93% 30.13 in 10.0 mi Calm Calm - N/A   Clear
1:35 AM 30.2 °F - 28.4 °F 93% 30.13 in 10.0 mi Calm Calm - N/A   Clear
1:55 AM 30.2 °F 26.7 °F 28.4 °F 93% 30.13 in 10.0 mi NE 3.5 mph - N/A   Clear
2:15 AM 30.2 °F - 28.4 °F 93% 30.13 in 10.0 mi Calm Calm - N/A   Clear
2:35 AM 30.2 °F 26.7 °F 28.4 °F 93% 30.12 in 10.0 mi NNE 3.5 mph - N/A   Clear
2:55 AM 30.2 °F - 28.4 °F 93% 30.12 in 10.0 mi Calm Calm - N/A   Clear
3:15 AM 30.2 °F - 28.4 °F 93% 30.12 in 10.0 mi Calm Calm - N/A   Clear
3:35 AM 30.2 °F - 28.4 °F 93% 30.11 in 10.0 mi Calm Calm - N/A   Clear
3:55 AM 30.2 °F - 28.4 °F 93% 30.11 in 10.0 mi Calm Calm - N/A   Clear
4:15 AM 28.4 °F - 26.6 °F 93% 30.10 in 10.0 mi Calm Calm - N/A   Clear
4:35 AM 28.4 °F - 26.6 °F 93% 30.11 in 10.0 mi Calm Calm - N/A   Clear
4:55 AM 28.4 °F - 28.4 °F 100% 30.11 in 10.0 mi Calm Calm - N/A   Clear
5:15 AM 28.4 °F - 26.6 °F 93% 30.12 in 10.0 mi Calm Calm - N/A   Clear
5:35 AM 28.4 °F - 26.6 °F 93% 30.12 in 10.0 mi Calm Calm - N/A   Clear
5:55 AM 28.4 °F - 26.6 °F 93% 30.12 in 10.0 mi Calm Calm - N/A   Clear
6:15 AM 28.4 °F - 26.6 °F 93% 30.13 in 10.0 mi Calm Calm - N/A   Clear
6:35 AM 28.4 °F - 26.6 °F 93% 30.13 in 10.0 mi Calm Calm - N/A   Clear
6:55 AM 28.4 °F - 26.6 °F 93% 30.14 in 10.0 mi Calm Calm - N/A   Clear
7:15 AM 28.4 °F - 26.6 °F 93% 30.15 in 10.0 mi Calm Calm - N/A   Clear
7:35 AM 28.4 °F - 26.6 °F 93% 30.15 in 10.0 mi Calm Calm - N/A   Clear
7:55 AM 30.2 °F - 28.4 °F 93% 30.16 in 10.0 mi Calm Calm - N/A   Clear
8:15 AM 32.0 °F 28.7 °F 30.2 °F 93% 30.16 in 10.0 mi NE 3.5 mph - N/A   Clear
8:35 AM 32.0 °F - 32.0 °F 100% 30.16 in 10.0 mi Calm Calm - N/A   Clear
8:55 AM 35.6 °F - 32.0 °F 87% 30.18 in 10.0 mi Calm Calm - N/A   Clear
9:15 AM 41.0 °F - 33.8 °F 76% 30.19 in 10.0 mi Calm Calm - N/A   Clear
9:35 AM 42.8 °F 40.1 °F 30.2 °F 61% 30.20 in 10.0 mi NNW 4.6 mph - N/A   Clear
9:55 AM 44.6 °F 39.2 °F 26.6 °F 49% 30.19 in 10.0 mi North 10.4 mph - N/A   Clear
10:15 AM 44.6 °F 39.7 °F 23.0 °F 43% 30.19 in 10.0 mi North 9.2 mph - N/A   Clear
10:35 AM 44.6 °F 39.7 °F 21.2 °F 39% 30.19 in 10.0 mi North 9.2 mph 18.4 mph N/A   Clear
10:55 AM 44.6 °F 39.7 °F 21.2 °F 39% 30.19 in 10.0 mi North 9.2 mph 17.3 mph N/A   Clear
11:15 AM 44.6 °F 39.2 °F 19.4 °F 37% 30.18 in 10.0 mi NNW 10.4 mph 17.3 mph N/A   Clear
11:35 AM 44.6 °F 38.8 °F 19.4 °F 37% 30.18 in 10.0 mi NNW 11.5 mph 18.4 mph N/A   Clear
11:55 AM 44.6 °F 39.2 °F 15.8 °F 31% 30.17 in 10.0 mi NW 10.4 mph 16.1 mph N/A   Clear
12:15 PM 46.4 °F 42.9 °F 17.6 °F 32% 30.16 in 10.0 mi NNW 6.9 mph - N/A   Clear
12:35 PM 46.4 °F 45.2 °F 15.8 °F 29% 30.16 in 10.0 mi WNW 3.5 mph - N/A   Clear
12:55 PM 46.4 °F 41.1 °F 14.0 °F 27% 30.16 in 10.0 mi NNW 11.5 mph - N/A   Clear
1:15 PM 46.4 °F 42.9 °F 14.0 °F 27% 30.16 in 10.0 mi NW 6.9 mph 16.1 mph N/A   Clear
1:35 PM 46.4 °F 41.5 °F 17.6 °F 32% 30.16 in 10.0 mi North 10.4 mph 18.4 mph N/A   Clear
1:55 PM 48.2 °F - 17.6 °F 30% 30.15 in 10.0 mi WNW 4.6 mph - N/A   Clear
2:15 PM 46.4 °F 41.1 °F 17.6 °F 32% 30.15 in 10.0 mi WNW 11.5 mph - N/A   Clear
2:35 PM 46.4 °F 41.5 °F 15.8 °F 29% 30.15 in 10.0 mi NNW 10.4 mph 16.1 mph N/A   Clear
2:55 PM 46.4 °F 41.9 °F 15.8 °F 29% 30.16 in 10.0 mi North 9.2 mph - N/A   Clear
3:15 PM 46.4 °F 41.9 °F 15.8 °F 29% 30.16 in 10.0 mi NW 9.2 mph - N/A   Clear
3:35 PM 46.4 °F 41.9 °F 14.0 °F 27% 30.16 in 10.0 mi West 9.2 mph - N/A   Clear
3:55 PM 46.4 °F 42.9 °F 14.0 °F 27% 30.16 in 10.0 mi NW 6.9 mph - N/A   Clear
4:15 PM 44.6 °F 40.2 °F 14.0 °F 29% 30.17 in 10.0 mi NW 8.1 mph - N/A   Clear
4:35 PM 44.6 °F 40.7 °F 14.0 °F 29% 30.17 in 10.0 mi NW 6.9 mph - N/A   Clear
4:55 PM 42.8 °F 38.6 °F 12.2 °F 29% 30.17 in 10.0 mi NNW 6.9 mph - N/A   Clear
5:15 PM 41.0 °F 39.0 °F 12.2 °F 31% 30.17 in 10.0 mi NNW 3.5 mph - N/A   Clear
5:35 PM 41.0 °F 39.0 °F 14.0 °F 33% 30.18 in 10.0 mi WNW 3.5 mph - N/A   Clear
5:55 PM 39.2 °F 37.0 °F 14.0 °F 36% 30.19 in 10.0 mi WNW 3.5 mph - N/A   Clear
6:15 PM 37.4 °F 34.9 °F 15.8 °F 41% 30.19 in 10.0 mi NW 3.5 mph - N/A   Clear
6:35 PM 37.4 °F - 17.6 °F 45% 30.20 in 10.0 mi Calm Calm - N/A   Clear
6:55 PM 35.6 °F 32.8 °F 17.6 °F 48% 30.20 in 10.0 mi North 3.5 mph - N/A   Clear
7:15 PM 37.4 °F - 17.6 °F 45% 30.21 in 10.0 mi Calm Calm - N/A   Clear
7:35 PM 32.0 °F - 19.4 °F 60% 30.20 in 10.0 mi Calm Calm - N/A   Clear
7:55 PM 32.0 °F - 19.4 °F 60% 30.21 in 10.0 mi Calm Calm - N/A   Clear
8:15 PM 32.0 °F - 21.2 °F 64% 30.21 in 10.0 mi Calm Calm - N/A   Clear
8:35 PM 32.0 °F - 21.2 °F 64% 30.22 in 10.0 mi Calm Calm - N/A   Clear
8:55 PM 30.2 °F - 21.2 °F 69% 30.22 in 10.0 mi Calm Calm - N/A   Clear
9:15 PM 32.0 °F - 21.2 °F 64% 30.23 in 10.0 mi Calm Calm - N/A   Clear
9:35 PM 32.0 °F - 21.2 °F 64% 30.23 in 10.0 mi Calm Calm - N/A   Clear
9:55 PM 32.0 °F - 21.2 °F 64% 30.23 in 10.0 mi Calm Calm - N/A   Clear
10:15 PM 30.2 °F - 19.4 °F 64% 30.23 in 10.0 mi Calm Calm - N/A   Clear
10:35 PM 32.0 °F 27.5 °F 17.6 °F 55% 30.23 in 10.0 mi North 4.6 mph - N/A   Clear
10:55 PM 32.0 °F 25.6 °F 14.0 °F 48% 30.23 in 10.0 mi North 6.9 mph - N/A   Clear
11:15 PM 32.0 °F 26.4 °F 14.0 °F 48% 30.23 in 10.0 mi NNW 5.8 mph - N/A   Clear
11:55 PM 32.0 °F - 15.8 °F 51% 30.23 in 10.0 mi Calm Calm - N/A   Clear